Home   Weather   Aguascalientes   Past weeks

Flag for Mexico Past Weather in Aguascalientes, Aguascalientes, Mexico — Yesterday and Last 2 Weeks

Now
59 °F

Clear.


Feels Like: 59 °F
Forecast: 53 / 82 °F
Wind: 5 mph from South

Location: San Luis Potosi - S. L. P.

Current Time: Apr 23, 2017 at 4:54:25 am

Latest Report: Apr 23, 2017 at 3:43 am


Visibility: 10 mi

Pressure: 29.75 "Hg (23.83 "Hg at 1870m altitude)

Humidity: 72%

Dew Point: 50 °F

Location of AguascalientesLocation

Past Weather in Aguascalientes — Graph

°F

Aguascalientes Temperature Yesterday

Maximum temperature yesterday: 86 °F (at 4:43 pm)
Minimum temperature yesterday: 48 °F (at 7:41 am)
Average temperature yesterday: 68 °F

High & Low Weather Summary for the Past Weeks

 TemperatureHumidityPressure
High90 °F (Apr 9, 4:46 pm)100% (Apr 8, 4:40 am)30.33 "Hg (Apr 8, 4:40 am)
Low41 °F (Apr 19, 7:43 am)6% (Apr 9, 2:48 pm)29.60 "Hg (Apr 21, 6:44 pm)
Average64 °F56%30.07 "Hg
* Reported Apr 8 2:43 am — Apr 23 2:45 am, Aguascalientes, Weather by CustomWeather, © 2017

Note: Actual official high and low records may vary slightly from our data, if they occured in-between our weather recording intervals... More about our weather records

Advertising

Aguascalientes Weather History for the Previous 24 Hours

Scroll right to see more
 ConditionsComfort  
Time TempWeatherWind HumidityBarometerVisibility
2:45 am
Sun, Apr 23
59 °FClear.6 mph72%30.20 "Hg8 mi
1:40 am61 °FClear.7 mph68%30.22 "Hg10 mi
12:43 am63 °FClear.7 mph59%29.78 "Hg10 mi
11:40 pm
Sat, Apr 22
63 °FClear.9 mph59%30.22 "Hg10 mi
10:47 pm64 °FClear.14 mph52%30.18 "Hg10 mi
9:51 pm68 °FClear.16 mph43%29.75 "Hg10 mi
8:47 pm72 °FClear.17 mph22%30.12 "Hg10 mi
7:45 pm77 °FScattered clouds.13 mph10%30.09 "Hg12 mi
6:47 pm82 °FPassing clouds.23 mph8%29.68 "Hg15 mi
5:45 pm84 °FPassing clouds.20 mph8%30.05 "Hg15 mi
4:43 pm86 °FPassing clouds.9 mph7%30.06 "Hg15 mi
3:43 pm84 °FPassing clouds.14 mph10%29.66 "Hg15 mi
2:49 pm84 °FPassing clouds.14 mph8%30.10 "Hg15 mi
1:42 pm82 °FSunny.16 mph13%30.12 "Hg10 mi
12:43 pm79 °FSunny.7 mph15%29.73 "Hg10 mi
11:46 am75 °FSunny.3 mph29%30.16 "Hg8 mi
10:41 am70 °FSunny.No wind43%30.18 "Hg6 mi
9:45 am63 °FSunny.No wind64%29.70 "Hg5 mi
8:42 am55 °FFog.3 mph94%30.16 "Hg3 mi
7:41 am48 °FFog.No wind100%30.15 "Hg3 mi
6:41 am52 °FClear.No wind100%29.66 "Hg6 mi
6:03 am52 °FClear.No wind100%30.12 "Hg6 mi
4:55 am54 °FClear.No wind77%30.11 "Hg6 mi
Weather by CustomWeather, © 2017

See weather overviewHow to use our weather pages